This is the latest recevied weather packets stored in our database for station/object OM2RC-6. If no packets are shown the sender has not sent any weather packets the latest 10 day(s).
| Time | Temp. | Humidity | Pressure | Rain* | Wind** | Luminosity | Snow |
|---|---|---|---|---|---|---|---|
| 1778008081 | 17.22° C | 79% | 1007.9 hPa | - | - | - | - |
| 1778007762 | 17.22° C | 78% | 1008.1 hPa | - | - | - | - |
| 1778007443 | 17.22° C | 77% | 1008.1 hPa | - | - | - | - |
| 1778007131 | 17.22° C | 76% | 1008 hPa | - | - | - | - |
| 1778006805 | 17.22° C | 74% | 1007.9 hPa | - | - | - | - |
| 1778006486 | 17.78° C | 73% | 1007.9 hPa | - | - | - | - |
| 1778006167 | 17.78° C | 71% | 1007.8 hPa | - | - | - | - |
| 1778005848 | 17.78° C | 69% | 1007.7 hPa | - | - | - | - |
| 1778004890 | 18.33° C | 66% | 1007.7 hPa | - | - | - | - |
| 1778004576 | 18.33° C | 63% | 1007.6 hPa | - | - | - | - |
| 1778004314 | 18.33° C | 60% | 1007.8 hPa | - | - | - | - |
| 1778003933 | 18.33° C | 59% | 1007.7 hPa | - | - | - | - |
| 1778003614 | 18.89° C | 56% | 1007.7 hPa | - | - | - | - |
| 1778003295 | 18.89° C | 55% | 1007.7 hPa | - | - | - | - |
| 1778002976 | 18.89° C | 54% | 1007.7 hPa | - | - | - | - |
| 1778002657 | 19.44° C | 54% | 1007.6 hPa | - | - | - | - |
| 1778002338 | 19.44° C | 54% | 1007.7 hPa | - | - | - | - |
| 1778001120 | 20.56° C | 50% | 1007.3 hPa | - | - | - | - |
| 1778000818 | 20.56° C | 50% | 1007.2 hPa | - | - | - | - |
| 1778000517 | 20.56° C | 51% | 1007.3 hPa | - | - | - | - |
| 1777999912 | 20.56° C | 53% | 1007.4 hPa | - | - | - | - |
| 1777999611 | 20.56° C | 54% | 1007.6 hPa | - | - | - | - |
| 1777999310 | 21.11° C | 53% | 1007.6 hPa | - | - | - | - |
| 1777999009 | 21.11° C | 52% | 1007.6 hPa | - | - | - | - |
| 1777998708 | 21.11° C | 51% | 1007.3 hPa | - | - | - | - |
* Rain since midnight (hover to see other rain measurements)
** Current wind speed in m/s (hover to see current wind gust speed)